Regional Weather Roundup
Issued by NWS Northern Indiana

Home | Current Version | Previous Version | Graphics & Text | Print | Product List | Glossary On
Versions: 1 2 3 4 5 6 7 8 9 10 11 12 13 14 15 16 17 18 19 20 21 22 23 24 25 26 27 28 29 30 31 32 33 34 35 36 37 38 39 40 41 42 43 44 45 46 47 48 49 50
000
ASUS43 KIWX 161200
RWRIWX

KIWX WEATHER ROUNDUP
NATIONAL WEATHER SERVICE NORTHERN INDIANA
700 AM EST SAT DEC 16 2017

NOTE: "FAIR" INDICATES FEW OR NO CLOUDS BELOW 12,000 FEET WITH NO
SIGNIFICANT WEATHER AND/OR OBSTRUCTIONS TO VISIBILITY.

* THESE STATIONS ARE NOT UNDER NWS QUALITY CONTROL. THEY ALSO MAY NOT
  REPORT WEATHER SUCH AS PRECIPITATION OR FOG.

INZ001>027-161300-
NORTHERN INDIANA

CITY           SKY/WX    TMP DP  RH WIND       PRES   REMARKS
GARY*          CLOUDY    37  23  56 SW12G23   29.87S
MICHIGAN CITY* CLOUDY    36  27  69 S9        29.88R
SOUTH BEND     CLOUDY    34  26  72 SW13      29.89R WCI  25
6HR MIN TEMP:  32; 6HR MAX TEMP:  34;

GOSHEN         CLOUDY    34  25  69 SW16      29.89R WCI  24
6HR MIN TEMP:  32; 6HR MAX TEMP:  34;

MONTICELLO*    CLEAR     33  24  67 S12       29.91F WCI  25
6HR MIN TEMP:  33; 6HR MAX TEMP:  35;

FORT WAYNE     CLOUDY    33  26  75 SW15      29.93S WCI  23
6HR MIN TEMP:  32; 6HR MAX TEMP:  34;

PERU/GRISSOM   MOCLDY    33  25  72 SW14      29.92F WCI  23
6HR MIN TEMP:  33; 6HR MAX TEMP:  35;


$$
INZ028>050-161300-
CENTRAL INDIANA

CITY           SKY/WX    TMP DP  RH WIND       PRES   REMARKS
LAFAYETTE      CLOUDY    32  25  75 SW8       29.94F WCI  25
6HR MIN TEMP:  32; 6HR MAX TEMP:  34;

KOKOMO*        PTCLDY    33  25  72 SW18      29.94F WCI  22
6HR MIN TEMP:  33; 6HR MAX TEMP:  35;

MUNCIE*        PTCLDY    35  25  66 SW15G25   29.96F WCI  25
6HR MIN TEMP:  34; 6HR MAX TEMP:  35;

INDIANAPOLIS   CLOUDY    30  24  78 S9        30.00F WCI  22
6HR MIN TEMP:  30; 6HR MAX TEMP:  34;


$$
MIZ043>046-050>051-056>058-064>065-071>073-077>080-161300-
SOUTHWEST LOWER MICHIGAN

CITY           SKY/WX    TMP DP  RH WIND       PRES   REMARKS
BATTLE CREEK   CLOUDY    32  24  72 S7        29.87R WCI  26
6HR MIN TEMP:  29; 6HR MAX TEMP:  33; 6HR PCP: TRACE;

BENTON HARBOR  CLOUDY    38  25  59 SW12      29.87R
6HR MIN TEMP:  35; 6HR MAX TEMP:  38;

COLDWATER*     CLOUDY    33  24  68 SW7       29.88R WCI  27
6HR MIN TEMP:  30; 6HR MAX TEMP:  33;

HILLSDALE*     CLOUDY    32  23  69 S7        29.86S WCI  26
HOLLAND        CLOUDY    37  29  72 W10       29.85R
6HR MIN TEMP:  34; 6HR MAX TEMP:  38; 6HR PCP:  0.05;

GRAND RAPIDS   FLURRIES  26  24  92 NE7       29.86R WCI  18
6HR MIN TEMP:  25; 6HR MAX TEMP:  26; 6HR PCP:  0.25;

KALAMAZOO      CLOUDY    34  24  67 SW10      29.86R WCI  26
6HR MIN TEMP:  29; 6HR MAX TEMP:  34; 6HR PCP: TRACE;

STURGIS*       CLOUDY    33  26  73 SW8       29.87R WCI  26
6HR MIN TEMP:  31; 6HR MAX TEMP:  34;

THREE RIVERS*  FAIR      34  25  69 SW12      29.88R WCI  25
6HR MIN TEMP:  31; 6HR MAX TEMP:  35;


$$
OHZ001>008-015>018-024>025-161300-
NORTHWEST OHIO

CITY           SKY/WX    TMP DP  RH WIND       PRES   REMARKS
DEFIANCE       CLOUDY    33  24  69 SW12      29.93S WCI  24
6HR MIN TEMP:  30; 6HR MAX TEMP:  34;

FINDLAY        CLOUDY    34  24  67 SW18      29.94F WCI  23
6HR MIN TEMP:  30; 6HR MAX TEMP:  35;

TOLEDO EXPRESS CLOUDY    35  25  66 SW13      29.93R WCI  26
6HR MIN TEMP:  30; 6HR MAX TEMP:  35; 6HR PCP: TRACE;

TOLEDO METCALF CLOUDY    33  25  72 SW13      29.94S WCI  24
6HR MIN TEMP:  30; 6HR MAX TEMP:  33;

LIMA           CLOUDY    33  26  75 SW13      29.96F WCI  24
6HR MIN TEMP:  30; 6HR MAX TEMP:  33;


$$
AND FOR LAKE MICHIGAN COASTAL AND OPEN LAKE BUOY OBSERVATIONS

STATION/POSITION TEMP    WIND        PRES    VSBY  WAVE
                 AIR SEA DIR/SP/G                  HT/PER
                 (F)     (DEG/KT/KT) (MB)    (MI)  (FT/S)
CALUMET HARBOR    36     200/ 13/ 17 1010.2R
MICHIGAN CITY     37     190/ 16/ 18   N/A
BURNS HARBOR      37     210/ 15/ 21 1011.5R
SAINT JOSEPH      38     220/ 15/ 19 1011.5

$$
&&



USA.gov is the U.S. government's official web portal to all federal, state and local government web resources and services.